Regional Weather Roundup
Issued by NWS Goodland, KS

Home | Current Version | Previous Version | Text Only | Print | Product List | Glossary Off
Versions: 1 2 3 4 5 6 7 8 9 10 11 12 13 14 15 16 17 18 19 20 21 22 23 24 25 26 27 28 29 30 31 32 33 34 35 36 37 38 39 40 41 42 43 44 45 46 47 48 49 50

433
ASUS43 KGLD 251559
RWRGLD

GOODLAND FORECAST AREA HOURLY WEATHER ROUNDUP
NATIONAL WEATHER SERVICE GOODLAND KS
900 AM MST SAT FEB 25 2017

...OFFICIAL OBSERVATIONS...

CITY           SKY/WX    TMP DP  RH WIND       PRES   REMARKS
GOODLAND KS    SUNNY     28  21  75 SW17      30.01F WCI  16
HILL CITY KS   SUNNY     28  17  63 SW6       30.12F
IMPERIAL NEB   SUNNY     23  16  74 W10       29.99F WCI  12
MCCOOK NEB     SUNNY     28  21  75 SW15      30.04F WCI  16
AKRON CO       SUNNY     22  16  78 W10       29.95F WCI  11
BURLINGTON CO  SUNNY     29  18  63 SW18      30.00F WCI  16
LIMON CO       SUNNY     24  14  65 W6        29.95F
$$

...UNOFFICIAL OBSERVATIONS...

CITY           SKY/WX    TMP DP  RH WIND       PRES   REMARKS
LENORA KS        N/A     28  32 100 SW9         N/A
SHARON SPRINGS   N/A     27  22  81 S15G23      N/A  WCI  15
TRENTON NEB      N/A     26  32 100 CALM        N/A
KIT CARSON CO    N/A     24  17  75 MISG        N/A
YUMA CO        FAIR      25  16  68 W7        29.97F
$$




USA.gov is the U.S. government's official web portal to all federal, state and local government web resources and services.